EW2138 Weather Reports


time (UTC)temp
C
wind
direction
speed
KPH
gust
KPH
rain 1hr
cm
rain 24hr
cm
rain mn
cm
humidity
%
barometer
mb
20260507104542 3 304 0.0 0.0 0.00 1.40 0.03 99 1006.4
20260507103042 3 241 0.0 0.0 0.00 1.40 0.03 99 1006.4
20260507101541 3 267 0.0 0.0 0.00 1.40 0.03 99 1006.3
20260507100042 3 247 0.0 1.6 0.00 1.40 0.03 99 1006.3
20260507094539 3 209 0.0 0.0 0.00 1.40 0.03 99 1006.0
20260507093039 3 209 0.0 0.0 0.00 1.40 0.03 99 1006.1
20260507091538 3 209 0.0 1.6 0.00 1.40 0.03 99 1006.3
20260507090043 3 209 0.0 0.0 0.00 1.40 0.03 99 1006.2
20260507084537 3 155 0.0 0.0 0.00 1.40 0.03 99 1006.1
20260507083036 3 226 0.0 4.8 0.00 1.40 0.03 99 1006.2
20260507081542 3 232 0.0 0.0 0.00 1.40 0.03 99 1006.4
20260507080036 3 342 0.0 0.0 0.00 1.40 0.03 99 1006.4
20260507074534 3 355 0.0 0.0 0.00 1.40 0.03 99 1006.3
20260507073033 3 325 0.0 1.6 0.00 1.40 0.03 99 1006.3
20260507071535 3 61 0.0 0.0 0.00 1.40 0.03 99 1006.2
20260507070034 3 61 0.0 0.0 0.00 1.40 0.03 99 1006.1
20260507064540 3 59 0.0 3.2 0.00 1.42 0.03 99 1005.8
20260507063030 3 63 0.0 0.0 0.00 1.42 0.03 99 1006.0
20260507061533 3 104 0.0 0.0 0.00 1.42 0.03 99 1005.9
20260507060026 3 99 0.0 1.6 0.00 1.42 0.03 99 1006.1
20260507054526 3 96 0.0 0.0 0.03 1.42 0.03 99 1006.0
20260507053032 3 64 0.0 0.0 0.03 1.42 0.03 99 1006.4
20260507051523 3 64 0.0 1.6 0.03 1.42 0.03 99 1006.6
20260507050022 3 64 0.0 0.0 0.03 1.42 0.03 99 1006.5
20260507044521 3 64 0.0 3.2 0.00 1.50 0.00 99 1006.6
20260507043020 3 5 0.0 0.0 0.00 1.50 0.00 99 1006.6
20260507041517 3 21 0.0 4.8 0.00 1.50 0.00 99 1006.4
20260507040016 3 340 0.0 1.6 0.00 1.50 0.00 99 1006.5
20260507034514 3 132 0.0 3.2 0.00 1.57 1.50 99 1006.4
20260507033012 3 63 0.0 1.6 0.00 1.57 1.50 99 1006.4
20260507031510 4 90 0.0 0.0 0.00 1.57 1.50 99 1006.7
20260507030004 4 76 0.0 1.6 0.00 1.57 1.50 99 1006.2
20260507024503 4 98 0.0 0.0 0.00 1.57 1.50 99 1006.4
20260507023001 4 98 0.0 0.0 0.00 1.57 1.50 99 1006.8
20260507021608 4 98 0.0 0.0 0.03 1.57 1.50 99 1006.6
20260507020059 4 98 0.0 1.6 0.03 1.57 1.50 99 1006.6
20260507014559 4 65 0.0 1.6 0.05 1.57 1.50 99 1006.7
20260507013115 4 315 0.0 1.6 0.05 1.57 1.50 99 1006.7
20260507011556 4 317 0.0 0.0 0.03 1.55 1.45 99 1006.7
20260507010055 4 294 0.0 0.0 0.03 1.55 1.45 99 1006.6
20260507004554 4 142 0.0 0.0 0.03 1.52 1.42 99 1006.3
20260507003052 4 140 0.0 0.0 0.03 1.52 1.42 99 1005.9
20260507001608 5 69 0.0 0.0 0.05 1.52 1.42 99 1005.6
20260507000050 5 259 0.0 0.0 0.05 1.52 1.42 99 1005.5
20260506234557 5 88 0.0 0.0 0.03 1.50 1.42 99 1005.0
20260506233047 5 324 0.0 0.0 0.05 1.50 1.42 99 1005.0
20260506231546 5 324 0.0 1.6 0.05 1.45 1.40 99 1004.7
20260506230044 5 331 0.0 0.0 0.05 1.45 1.40 99 1004.6
20260506224557 5 346 0.0 0.0 0.08 1.45 1.40 99 1004.4
20260506223041 5 318 0.0 0.0 0.05 1.42 1.37 99 1004.5
20260506221539 5 315 0.0 0.0 0.05 1.42 1.35 99 1004.2
20260506220045 5 259 0.0 0.0 0.08 1.42 1.35 99 1004.0
20260506214537 6 340 0.0 0.0 0.08 1.42 1.32 99 1004.1
20260506213036 6 342 0.0 0.0 0.10 1.42 1.32 99 1004.0
20260506211536 6 342 0.0 0.0 0.10 1.42 1.30 99 1003.9
20260506210035 6 307 0.0 0.0 0.08 1.40 1.27 99 1003.9
20260506204538 6 307 0.0 0.0 0.10 1.52 1.24 99 1003.9
20260506203033 6 307 0.0 0.0 0.10 1.50 1.22 99 1003.9
20260506201532 6 307 0.0 0.0 0.10 1.45 1.19 99 1003.8
20260506200032 6 291 0.0 0.0 0.13 1.45 1.19 99 1003.8
20260506194536 6 350 0.0 0.0 0.10 1.50 1.14 99 1003.8
20260506193030 6 350 0.0 0.0 0.13 1.45 1.12 99 1003.8
20260506191528 6 350 0.0 0.0 0.13 1.42 1.09 98 1003.9
20260506190027 6 5 0.0 0.0 0.13 1.42 1.07 98 1003.8
20260506184529 6 338 0.0 0.0 0.15 1.40 1.04 99 1003.7
20260506183027 6 338 0.0 0.0 0.13 1.35 0.99 99 1003.7
20260506181523 6 338 0.0 0.0 0.15 1.32 0.97 98 1003.8
20260506180022 6 5 0.0 0.0 0.15 1.30 0.94 99 1003.9
20260506174521 6 5 0.0 0.0 0.15 1.24 0.89 98 1004.1
20260506173023 6 11 0.0 0.0 0.15 1.22 0.86 98 1004.1
20260506171525 7 335 0.0 0.0 0.13 1.17 0.81 98 1004.0
20260506170020 7 169 0.0 0.0 0.15 1.14 0.79 98 1003.9
20260506164520 7 111 0.0 0.0 0.13 1.09 0.71 98 1004.0
20260506163017 6 110 0.0 0.0 0.13 1.07 0.71 98 1003.9
20260506161512 7 46 0.0 0.0 0.13 1.04 0.69 98 1004.1
20260506160009 7 46 0.0 0.0 0.10 0.99 0.64 98 1004.4
20260506154514 7 288 0.0 0.0 0.13 0.97 0.61 99 1004.0
20260506153003 7 286 0.0 0.0 0.10 0.94 0.58 98 1004.3
20260506151600 7 313 0.0 0.0 0.13 0.91 0.56 98 1004.3
20260506150104 7 313 0.0 0.0 0.13 0.89 0.53 98 1004.4
20260506144556 7 313 0.0 0.0 0.10 0.89 0.48 98 1004.5
20260506143055 8 313 0.0 0.0 0.13 0.89 0.48 98 1004.7
20260506141555 8 313 0.0 0.0 0.10 0.84 0.43 98 1004.7
20260506140055 8 49 0.0 0.0 0.13 0.81 0.41 98 1004.4
20260506134554 8 57 0.0 0.0 0.13 0.79 0.38 98 1004.5
20260506133101 8 57 0.0 4.8 0.13 0.76 0.36 98 1004.7
20260506131559 8 92 0.0 0.0 0.13 0.71 0.33 98 1004.8
20260506130054 8 167 0.0 0.0 0.10 0.69 0.28 98 1005.0
20260506124549 8 167 0.0 0.0 0.08 0.66 0.25 98 1005.1
20260506123048 8 167 0.0 0.0 0.08 0.64 0.23 98 1005.4
20260506121546 8 167 0.0 0.0 0.05 0.61 0.20 98 1005.1
20260506120046 8 167 0.0 0.0 0.03 0.58 0.18 98 1005.2
20260506114544 8 167 0.0 0.0 0.05 0.58 0.18 98 1005.3
20260506113043 9 166 0.0 0.0 0.03 0.56 0.15 98 1005.2
20260506111540 9 72 0.0 0.0 0.03 0.56 0.15 98 1005.3
20260506110040 9 115 0.0 3.2 0.03 0.56 0.15 98 1005.0